[[{"header":{"parameterUnit":"m.s-1","parameterCategory":1,"la1":30.2991,"la2":30.254,"lo1":-89.0895,"lo2":-89.0444,"dy":0.0017,"dx":0.0017,"nx":28,"ny":28,"refTime":"2024-12-19T03:00:00:Z","depth":0,"parameterNumber":2,"parameterNumberName":"U-component_of_WINDS"},"data":[0,0,0,0,0,0,0,0,0,0,0,0,0,0,0,0,0,0,0,0,0,0,0,0,0,0,0,0,0,0,0,0,0,0,0,0,0,0,0,0,0,0,0,0,0,0,0,0,0,0,0,0,0,0,0,0,0,0,2.0071,2.0071,0,2.005,2.005,2.0049,2.0008,2.0007,2.0006,2.0005,1.9983,1.9983,1.9983,0,0,0,0,0,0,0,0,0,0,0,0,0,2.0076,2.0076,2.0071,2.0071,2.0071,2.005,2.005,2.0049,2.0008,2.0007,2.0006,2.0005,1.9983,1.9983,1.9983,0,0,0,0,0,0,0,0,0,0,0,0,0,2.0066,2.0076,2.0071,2.0047,2.0045,2.005,2.005,2.0049,2.0008,2.0007,2.0006,2.0005,1.9983,1.9983,1.9983,2.001,0,0,1.9984,1.9984,0,0,0,0,0,0,0,0,2.0067,2.0066,2.0051,2.0049,2.0046,2.003,2.0043,2.0036,2.0008,2.0022,2.0005,2.0004,2.0,1.9999,1.9997,2.0008,2.0008,1.9984,1.9984,1.9985,1.9985,0,0,0,0,0,0,0,2.0068,2.0067,2.0063,2.0051,2.0048,2.0038,2.0035,2.0042,2.0018,2.0021,2.0018,2.0016,1.9998,1.9997,1.9996,2.0007,1.9984,1.9984,1.9985,1.9985,2.004,2.0042,0,0,0,0,0,0,2.0072,2.0068,2.0063,2.0062,2.0054,2.0039,2.0036,2.0037,2.0018,2.0014,2.0017,2.0014,1.9997,1.9996,1.9995,2.0026,1.9985,1.9985,1.9985,2.0039,2.0041,2.0042,0,0,0,0,0,0,2.0072,2.0072,2.0064,2.0064,2.0062,2.004,2.0041,2.0037,2.0036,2.0015,2.0011,2.002,1.9996,1.9995,2.0007,2.0024,1.9985,1.9985,2.0037,2.0039,2.0041,2.0086,0,0,0,0,0,0,2.0072,2.0072,2.0081,2.0065,2.0062,2.0076,2.0042,2.0037,2.0036,2.0032,2.0017,2.0013,1.9995,2.0007,2.0007,2.0024,1.9985,2.0036,2.0038,2.0041,2.0082,2.0089,2.0094,0,0,0,0,0,2.0073,2.0094,2.0082,2.0082,2.0074,2.0077,2.0076,2.0055,2.0038,2.0047,2.0034,2.0013,2.0022,2.0008,2.0008,2.0025,2.0035,2.0038,2.004,2.008,2.0088,2.0094,0,0,0,0,0,0,2.0113,2.0092,2.0078,2.0095,2.0088,2.007,2.0081,2.0064,2.0061,2.0058,2.0032,2.0029,2.0044,2.0036,2.002,2.005,2.0025,2.0028,2.0055,2.0062,2.0068,2.007,1.9986,0,0,0,0,0,2.0124,2.0129,2.0109,2.0126,2.0124,2.0103,2.0104,2.0088,2.008,2.0077,2.0065,2.0058,2.0059,2.006,2.006,2.0081,2.0078,2.0093,2.0099,2.0104,2.0107,2.0119,2.0126,2.0052,2.0052,2.0052,0,0,2.0147,2.0136,2.014,2.0134,2.0127,2.0132,2.0101,2.0107,2.0111,2.0078,2.0088,2.0079,2.007,2.0087,2.0094,2.008,2.0127,2.0108,2.0112,2.0112,2.0123,2.013,2.0136,2.0054,2.0053,2.0053,0,0,2.0191,2.0182,2.0196,2.019,2.018,2.0167,2.017,2.0155,2.0148,2.0158,2.0134,2.0138,2.014,2.0135,2.0132,2.0177,2.0158,2.0177,2.0208,2.022,2.0226,2.0231,2.0247,2.0253,2.018,2.018,2.018,0,2.022,2.0227,2.0205,2.0214,2.0212,2.0184,2.0197,2.0193,2.0183,2.0183,2.0169,2.0172,2.0163,2.0179,2.019,2.0189,2.0193,2.0179,2.0227,2.0231,2.0236,2.0251,2.0257,2.0183,2.0183,2.0182,2.0182,0,2.0264,2.0269,2.0281,2.0274,2.0274,2.0285,2.0265,2.0268,2.0254,2.0242,2.0253,2.0242,2.024,2.0243,2.0228,2.0257,2.0249,2.0231,2.0205,2.0246,2.026,2.0265,2.0186,2.0186,2.0185,2.0184,0,0,2.0331,2.0313,2.0318,2.0315,2.0302,2.0306,2.0317,2.0315,2.0318,2.0313,2.0322,2.0325,2.0309,2.0306,2.0291,2.0301,2.0338,2.0282,2.0281,2.0293,2.037,2.0384,2.0391,2.0326,2.0327,2.0328,2.0371,0,2.0373,2.0389,2.0371,2.0392,2.0397,2.0371,2.038,2.0374,2.0363,2.0366,2.0355,2.0358,2.0336,2.0335,2.0344,2.0332,2.0353,2.0328,2.0334,2.0334,2.0337,2.0398,2.0413,2.0454,2.0377,2.0377,2.0378,0,2.0423,2.0421,2.0443,2.043,2.0432,2.044,2.0438,2.0442,2.0434,2.0426,2.0424,2.0407,2.0416,2.0392,2.0406,2.0389,2.039,2.0385,2.0386,2.0386,2.0359,2.04,2.0467,2.0474,2.0386,2.0386,2.0385,0,2.0471,2.0474,2.0487,2.0485,2.0471,2.0478,2.0473,2.0464,2.0465,2.0463,2.0464,2.0463,2.0463,2.0463,2.0445,2.0429,2.0462,2.0435,2.0456,2.0456,2.0463,2.0463,2.0532,2.0464,2.0464,2.0464,2.0464,0,2.0519,2.0533,2.0509,2.0517,2.0533,2.0512,2.0528,2.052,2.0513,2.052,2.0497,2.0503,2.048,2.0485,2.0471,2.0485,2.0485,2.0479,2.0475,2.0481,2.0482,2.0481,2.0478,2.0465,2.0465,2.0465,2.0465,0,2.0575,2.0559,2.0572,2.0558,2.0555,2.0568,2.0556,2.0563,2.0552,2.0561,2.0562,2.0544,2.0549,2.0532,2.0532,2.0524,2.0545,2.0536,2.0547,2.0545,2.0566,2.0565,2.0637,2.0646,2.0572,2.0573,2.0574,0,2.0606,2.0617,2.0605,2.0608,2.0604,2.0609,2.061,2.059,2.0592,2.0586,2.0594,2.0597,2.0598,2.0606,2.0593,2.0594,2.0586,2.0611,2.0586,2.0592,2.0587,2.0586,2.0588,2.0616,2.0617,2.0618,2.0619,0,2.0664,2.0657,2.0659,2.0659,2.0661,2.066,2.0658,2.0662,2.0641,2.0644,2.0649,2.0649,2.0651,2.0654,2.0653,2.0648,2.063,2.0627,2.0632,2.0638,2.0644,2.0642,2.0562,2.0625,2.0624,2.0624,2.0624,2.0623,2.0709,2.0718,2.0711,2.0715,2.0712,2.071,2.0717,2.0707,2.0711,2.0711,2.0699,2.0706,2.07,2.0697,2.0693,2.0699,2.0687,2.0694,2.0695,2.0698,2.0702,2.0643,2.0698,2.0698,2.0698,2.0698,2.0698,0,2.0767,2.0762,2.0765,2.0763,2.0767,2.075,2.0747,2.0751,2.0758,2.0754,2.0755,2.0761,2.0765,2.0753,2.0755,2.0761,2.0754,2.0763,2.0762,2.0761,2.0712,2.0708,2.0769,2.0769,2.0769,2.0769,2.0769,2.0769,2.0797,2.0811,2.0803,2.0816,2.081,2.0817,2.0817,2.0816,2.0813,2.082,2.0823,2.0816,2.0809,2.081,2.0813,2.081,2.0811,2.0824,2.0817,2.0771,2.0764,2.0758,2.0754,2.0824,2.0824,2.0866,2.0867,2.0867]},{"header":{"parameterUnit":"m.s-1","parameterCategory":1,"la1":30.2991,"la2":30.254,"lo1":-89.0895,"lo2":-89.0444,"dy":0.0017,"dx":0.0017,"nx":28,"ny":28,"refTime":"2024-12-19T03:00:00:Z","depth":0,"parameterNumber":3,"parameterNumberName":"V-component_of_WINDS"},"data":[0,0,0,0,0,0,0,0,0,0,0,0,0,0,0,0,0,0,0,0,0,0,0,0,0,0,0,0,0,0,0,0,0,0,0,0,0,0,0,0,0,0,0,0,0,0,0,0,0,0,0,0,0,0,0,0,0,0,-3.3642,-3.3642,0,-3.3722,-3.3723,-3.3724,-3.3732,-3.3731,-3.373,-3.3729,-3.381,-3.3813,-3.3816,0,0,0,0,0,0,0,0,0,0,0,0,0,-3.3494,-3.3497,-3.3641,-3.3642,-3.3643,-3.3722,-3.3723,-3.3724,-3.3732,-3.3731,-3.373,-3.3729,-3.3809,-3.3812,-3.3816,0,0,0,0,0,0,0,0,0,0,0,0,0,-3.3565,-3.3498,-3.3641,-3.3657,-3.3659,-3.3721,-3.3723,-3.3724,-3.3732,-3.3731,-3.3729,-3.3728,-3.3808,-3.3812,-3.3816,-3.3868,0,0,-3.383,-3.3832,0,0,0,0,0,0,0,0,-3.3561,-3.357,-3.3654,-3.3656,-3.3658,-3.3715,-3.37,-3.3772,-3.3732,-3.3704,-3.3729,-3.3728,-3.3779,-3.3786,-3.3804,-3.3872,-3.3875,-3.383,-3.3833,-3.3835,-3.3836,0,0,0,0,0,0,0,-3.3556,-3.3567,-3.3673,-3.3655,-3.3658,-3.366,-3.3668,-3.3714,-3.3748,-3.3707,-3.3707,-3.3717,-3.378,-3.3799,-3.3806,-3.3877,-3.383,-3.3834,-3.3837,-3.3838,-3.3992,-3.3994,0,0,0,0,0,0,-3.3548,-3.3563,-3.3671,-3.3676,-3.3606,-3.3663,-3.3673,-3.3698,-3.3747,-3.3754,-3.3718,-3.3717,-3.3793,-3.3801,-3.3809,-3.3873,-3.3835,-3.3839,-3.3841,-3.3991,-3.3993,-3.3994,0,0,0,0,0,0,-3.3545,-3.3558,-3.3667,-3.3619,-3.3634,-3.3667,-3.3696,-3.3701,-3.372,-3.3756,-3.3762,-3.3731,-3.3792,-3.3802,-3.3854,-3.3876,-3.3841,-3.3845,-3.3989,-3.3991,-3.3994,-3.4002,0,0,0,0,0,0,-3.3541,-3.3557,-3.3577,-3.362,-3.3636,-3.3711,-3.3697,-3.3703,-3.3727,-3.3727,-3.377,-3.3776,-3.3792,-3.3847,-3.3858,-3.3881,-3.3848,-3.3987,-3.399,-3.3993,-3.4,-3.4004,-3.4008,0,0,0,0,0,-3.3535,-3.3575,-3.3578,-3.3591,-3.3662,-3.3713,-3.3722,-3.374,-3.3729,-3.375,-3.3773,-3.3774,-3.3872,-3.3852,-3.3865,-3.389,-3.3986,-3.3989,-3.3993,-3.3998,-3.4003,-3.4008,0,0,0,0,0,0,-3.3533,-3.3581,-3.3584,-3.3639,-3.3672,-3.3714,-3.374,-3.3745,-3.3781,-3.3779,-3.3799,-3.3809,-3.3859,-3.388,-3.3857,-3.3943,-3.3928,-3.3934,-3.3928,-3.3933,-3.3937,-3.3931,-3.3852,0,0,0,0,0,-3.3539,-3.3577,-3.3616,-3.3661,-3.3678,-3.3706,-3.3729,-3.374,-3.3774,-3.3788,-3.3815,-3.3848,-3.3886,-3.3911,-3.3948,-3.4003,-3.4013,-3.4026,-3.403,-3.4034,-3.4038,-3.407,-3.4076,-3.4005,-3.4005,-3.4005,0,0,-3.3552,-3.3583,-3.3605,-3.3662,-3.3688,-3.3726,-3.3718,-3.3758,-3.3787,-3.3794,-3.3844,-3.3865,-3.3904,-3.3957,-3.3982,-3.3976,-3.406,-3.4038,-3.404,-3.4043,-3.4074,-3.4081,-3.4086,-3.4007,-3.4007,-3.4007,0,0,-3.3594,-3.3621,-3.3662,-3.3689,-3.373,-3.3749,-3.3758,-3.38,-3.3815,-3.3866,-3.3872,-3.3906,-3.3971,-3.3999,-3.4021,-3.4075,-3.4078,-3.4087,-3.4107,-3.4138,-3.4143,-3.4149,-3.4168,-3.4175,-3.4091,-3.4091,-3.4091,0,-3.3604,-3.3663,-3.3682,-3.3723,-3.3748,-3.3757,-3.3799,-3.3824,-3.3874,-3.3891,-3.3883,-3.3966,-3.3992,-3.4053,-3.4066,-3.4084,-3.4096,-3.4082,-3.4141,-3.4146,-3.4152,-3.417,-3.4178,-3.4092,-3.4092,-3.4092,-3.4092,0,-3.3674,-3.3714,-3.3742,-3.3791,-3.3819,-3.386,-3.3886,-3.3912,-3.3921,-3.3941,-3.3993,-3.4025,-3.4069,-3.4084,-3.4093,-3.4146,-3.4141,-3.4137,-3.4122,-3.4159,-3.4177,-3.4184,-3.4093,-3.4093,-3.4093,-3.4093,0,0,-3.3716,-3.3776,-3.3786,-3.3809,-3.3855,-3.3887,-3.3928,-3.3972,-3.3994,-3.4029,-3.4064,-3.412,-3.4117,-3.4142,-3.4154,-3.4181,-3.4222,-3.4174,-3.4175,-3.4182,-3.4284,-3.4286,-3.4294,-3.4225,-3.4226,-3.4227,-3.4281,0,-3.3764,-3.3838,-3.3857,-3.3921,-3.3959,-3.3969,-3.4005,-3.4037,-3.4057,-3.4092,-3.4113,-3.4153,-3.4145,-3.4161,-3.4188,-3.4212,-3.4243,-3.4208,-3.4258,-3.4259,-3.4248,-3.4304,-3.4307,-3.4355,-3.4288,-3.4289,-3.429,0,-3.3829,-3.3866,-3.3934,-3.3976,-3.3992,-3.4024,-3.4067,-3.41,-3.4137,-3.4149,-3.4178,-3.4188,-3.4232,-3.4216,-3.4276,-3.4252,-3.4274,-3.4288,-3.4291,-3.4296,-3.4277,-3.4311,-3.4371,-3.4378,-3.4301,-3.43,-3.4299,0,-3.3854,-3.392,-3.397,-3.3989,-3.4039,-3.4062,-3.4083,-3.4119,-3.4145,-3.4182,-3.4198,-3.424,-3.4262,-3.4294,-3.4315,-3.43,-3.4374,-3.4359,-3.4385,-3.4385,-3.44,-3.4399,-3.4465,-3.4414,-3.4414,-3.4414,-3.4413,0,-3.3905,-3.3946,-3.3981,-3.4011,-3.4058,-3.408,-3.4125,-3.4147,-3.4179,-3.4214,-3.4225,-3.4257,-3.4283,-3.4318,-3.4335,-3.4383,-3.4393,-3.4404,-3.4408,-3.4403,-3.4402,-3.4418,-3.4415,-3.4416,-3.4415,-3.4415,-3.4414,0,-3.394,-3.3965,-3.402,-3.4063,-3.4075,-3.4107,-3.4145,-3.4174,-3.4195,-3.4239,-3.425,-3.4283,-3.4326,-3.435,-3.4403,-3.4415,-3.4468,-3.447,-3.4456,-3.4457,-3.4483,-3.448,-3.4561,-3.4573,-3.4514,-3.4515,-3.4515,0,-3.3971,-3.4003,-3.405,-3.4074,-3.4097,-3.4136,-3.4162,-3.4185,-3.4212,-3.4257,-3.4282,-3.4325,-3.4362,-3.443,-3.4458,-3.4499,-3.4502,-3.4528,-3.4508,-3.4503,-3.4503,-3.4501,-3.4504,-3.4531,-3.4532,-3.4532,-3.4532,0,-3.4023,-3.4034,-3.4072,-3.4115,-3.4146,-3.4181,-3.4215,-3.4234,-3.4263,-3.4292,-3.4337,-3.4365,-3.4421,-3.4464,-3.4508,-3.453,-3.4536,-3.4539,-3.4547,-3.4542,-3.4533,-3.4538,-3.4465,-3.4536,-3.4536,-3.4536,-3.4535,-3.4535,-3.4057,-3.4086,-3.4124,-3.4166,-3.4195,-3.4227,-3.4257,-3.4282,-3.432,-3.4367,-3.4378,-3.4425,-3.4462,-3.4522,-3.4545,-3.4582,-3.4578,-3.459,-3.4593,-3.4595,-3.4597,-3.4527,-3.459,-3.459,-3.459,-3.459,-3.459,0,-3.411,-3.4136,-3.4174,-3.4222,-3.4255,-3.4259,-3.4297,-3.4325,-3.4366,-3.44,-3.4436,-3.4487,-3.453,-3.4562,-3.4605,-3.4628,-3.4632,-3.4639,-3.4638,-3.4643,-3.4598,-3.4587,-3.4635,-3.4635,-3.4635,-3.4635,-3.4635,-3.4635,-3.4142,-3.4192,-3.4208,-3.4272,-3.4297,-3.4343,-3.4365,-3.4394,-3.4422,-3.4479,-3.4515,-3.4535,-3.4569,-3.4615,-3.4654,-3.4663,-3.4678,-3.4684,-3.4693,-3.4651,-3.4646,-3.4641,-3.463,-3.4688,-3.4688,-3.4735,-3.4735,-3.4735]}]]